User: anonymous   Login
Location: Archemont
(49.1579°N, 1.7598°E)
Time: 23:41:57
(UTC+00:00)
Language:

Altair - Orbit

View from above orbital plane
View from above orbital plane
View from above satellite
View from above satellite

Ground track
Ground track

The orbit data is extracted from the following two-line orbital elements,

1 00050U 60009B   24107.29915648 -.00000068  00000-0  15922-3 0  9995
2 00050  47.2295  99.6567 0113101 175.1385 185.0527 12.20138777841015
Epoch (UTC): 16 April 2024 07:10:47
Eccentricity: 0.0113101
inclination: 47.2295°
perigee height: 1502 km
apogee height: 1682 km
right ascension of ascending node: 99.6567°
argument of perigee: 175.1385°
revolutions per day: 12.20138777
mean anomaly at epoch: 185.0527°
orbit number at epoch: 84101

The dashed part of the orbit path shows where the satellite is in the earth's shadow,  

DLR